Time,TemperatureF,DewpointF,PressureIn,WindDirection,WindDirectionDegrees,WindSpeedMPH,WindSpeedGustMPH,Humidity,HourlyPrecipIn,Conditions,Clouds,dailyrainin,SolarRadiationWatts/m^2,SoftwareType,DateUTC
2013-07-22 00:01:00,64.0,59.0,30.00,NE,44,0.0,-999.0,84,-99.99,,,-99.99,0.000000,,2013-07-22 04:01:00,
2013-07-22 00:12:00,64.0,59.0,30.00,NE,44,0.0,-999.0,84,-99.99,,,-99.99,0.000000,,2013-07-22 04:12:00,
2013-07-22 00:22:00,64.0,59.0,30.00,NE,44,0.0,-999.0,84,-99.99,,,-99.99,0.000000,,2013-07-22 04:22:00,
2013-07-22 00:33:00,64.0,59.0,30.00,NE,44,0.0,-999.0,83,-99.99,,,-99.99,0.000000,,2013-07-22 04:33:00,
2013-07-22 00:43:00,64.0,59.0,30.00,NE,44,0.0,-999.0,83,-99.99,,,-99.99,0.000000,,2013-07-22 04:43:00,
2013-07-22 01:02:00,66.0,59.0,29.99,NNE,19,1.0,-999.0,78,-99.99,,,-99.99,0.000000,,2013-07-22 05:02:00,
2013-07-22 01:11:00,66.0,59.0,29.99,NNE,19,1.0,-999.0,78,-99.99,,,-99.99,0.000000,,2013-07-22 05:11:00,
2013-07-22 01:22:00,66.0,58.0,29.99,NE,44,1.0,-999.0,76,-99.99,,,-99.99,0.000000,,2013-07-22 05:22:00,
2013-07-22 01:32:00,67.0,59.0,29.99,North,5,2.0,-999.0,75,-99.99,,,-99.99,0.000000,,2013-07-22 05:32:00,
2013-07-22 01:43:00,67.0,59.0,29.99,North,5,2.0,-999.0,75,-99.99,,,-99.99,0.000000,,2013-07-22 05:43:00,
2013-07-22 01:52:00,67.0,58.0,29.99,North,11,1.0,-999.0,73,-99.99,,,-99.99,0.000000,,2013-07-22 05:52:00,
2013-07-22 02:01:00,67.0,58.0,29.98,NNE,19,0.0,-999.0,72,-99.99,,,-99.99,0.000000,,2013-07-22 06:01:00,
2013-07-22 02:11:00,67.0,58.0,29.98,NNE,19,0.0,-999.0,72,-99.99,,,-99.99,0.000000,,2013-07-22 06:11:00,
2013-07-22 02:22:00,67.0,58.0,29.98,NE,47,1.0,-999.0,72,-99.99,,,-99.99,0.000000,,2013-07-22 06:22:00,
2013-07-22 02:33:00,67.0,58.0,29.98,NNE,30,2.0,-999.0,72,-99.99,,,-99.99,0.000000,,2013-07-22 06:33:00,
2013-07-22 02:43:00,67.0,58.0,29.98,NNE,30,2.0,-999.0,72,-99.99,,,-99.99,0.000000,,2013-07-22 06:43:00,
2013-07-22 02:52:00,67.0,57.0,29.98,NE,38,1.0,-999.0,71,-99.99,,,-99.99,0.000000,,2013-07-22 06:52:00,
2013-07-22 03:01:00,67.0,57.0,29.98,NE,55,1.0,-999.0,71,-99.99,,,-99.99,0.000000,,2013-07-22 07:01:00,
2013-07-22 03:12:00,67.0,57.0,29.98,NE,55,1.0,-999.0,71,-99.99,,,-99.99,0.000000,,2013-07-22 07:12:00,
2013-07-22 03:22:00,66.0,57.0,29.98,NE,55,2.0,-999.0,73,-99.99,,,-99.99,0.000000,,2013-07-22 07:22:00,
2013-07-22 03:33:00,66.0,57.0,29.97,North,11,2.0,-999.0,73,-99.99,,,-99.99,0.000000,,2013-07-22 07:33:00,
2013-07-22 03:43:00,66.0,57.0,29.97,North,11,2.0,-999.0,73,-99.99,,,-99.99,0.000000,,2013-07-22 07:43:00,
2013-07-22 03:53:00,66.0,58.0,29.96,NW,322,3.0,-999.0,75,-99.99,,,-99.99,0.000000,,2013-07-22 07:53:00,
2013-07-22 04:02:00,65.0,57.0,29.96,ENE,73,2.0,-999.0,75,-99.99,,,-99.99,0.000000,,2013-07-22 08:02:00,
2013-07-22 04:11:00,65.0,57.0,29.96,ENE,73,2.0,-999.0,75,-99.99,,,-99.99,0.000000,,2013-07-22 08:11:00,
2013-07-22 04:22:00,65.0,58.0,29.96,East,91,4.0,-999.0,77,-99.99,,,-99.99,0.000000,,2013-07-22 08:22:00,
2013-07-22 04:32:00,65.0,57.0,29.96,ENE,63,3.0,-999.0,76,-99.99,,,-99.99,0.000000,,2013-07-22 08:32:00,
2013-07-22 04:43:00,65.0,57.0,29.96,ENE,63,3.0,-999.0,76,-99.99,,,-99.99,0.000000,,2013-07-22 08:43:00,
2013-07-22 04:52:00,66.0,58.0,29.96,NW,313,2.0,-999.0,75,-99.99,,,-99.99,0.000000,,2013-07-22 08:52:00,
2013-07-22 05:02:00,65.0,57.0,29.97,NNE,25,0.0,-999.0,75,-99.99,,,-99.99,0.000000,,2013-07-22 09:02:00,
2013-07-22 05:11:00,65.0,57.0,29.97,NNE,25,0.0,-999.0,75,-99.99,,,-99.99,0.000000,,2013-07-22 09:11:00,
2013-07-22 05:22:00,65.0,58.0,29.97,NNE,25,0.0,-999.0,77,-99.99,,,-99.99,0.000000,,2013-07-22 09:22:00,
2013-07-22 05:33:00,64.0,57.0,29.98,NE,51,1.0,-999.0,79,-99.99,,,-99.99,0.000000,,2013-07-22 09:33:00,
2013-07-22 05:42:00,64.0,57.0,29.98,NE,51,1.0,-999.0,79,-99.99,,,-99.99,0.000000,,2013-07-22 09:42:00,
2013-07-22 05:52:00,64.0,58.0,29.98,NNW,347,3.0,-999.0,80,-99.99,,,-99.99,0.000000,,2013-07-22 09:52:00,
2013-07-22 06:02:00,64.0,58.0,29.98,NNE,23,3.0,-999.0,81,-99.99,,,-99.99,5.000000,,2013-07-22 10:02:00,
2013-07-22 06:11:00,64.0,58.0,29.98,NNE,23,3.0,-999.0,81,-99.99,,,-99.99,5.000000,,2013-07-22 10:11:00,
2013-07-22 06:22:00,63.0,57.0,29.98,NE,48,3.0,-999.0,82,-99.99,,,-99.99,11.000000,,2013-07-22 10:22:00,
2013-07-22 06:32:00,63.0,58.0,29.98,NE,52,5.0,-999.0,83,-99.99,,,-99.99,26.000000,,2013-07-22 10:32:00,
2013-07-22 06:43:00,63.0,58.0,29.98,NE,52,5.0,-999.0,83,-99.99,,,-99.99,26.000000,,2013-07-22 10:43:00,
2013-07-22 06:53:00,63.0,58.0,29.98,ESE,109,4.0,-999.0,83,-99.99,,,-99.99,39.000000,,2013-07-22 10:53:00,
2013-07-22 07:02:00,63.0,58.0,29.98,North,355,3.0,-999.0,84,-99.99,,,-99.99,105.000000,,2013-07-22 11:02:00,
2013-07-22 07:11:00,63.0,58.0,29.98,North,355,3.0,-999.0,84,-99.99,,,-99.99,105.000000,,2013-07-22 11:11:00,
2013-07-22 07:23:00,63.0,58.0,29.98,NNE,18,3.0,-999.0,84,-99.99,,,-99.99,91.000000,,2013-07-22 11:23:00,
2013-07-22 07:32:00,63.0,58.0,29.98,NNE,15,3.0,-999.0,84,-99.99,,,-99.99,83.000000,,2013-07-22 11:32:00,
2013-07-22 07:43:00,63.0,58.0,29.98,NNE,15,3.0,-999.0,84,-99.99,,,-99.99,83.000000,,2013-07-22 11:43:00,
2013-07-22 07:52:00,64.0,59.0,29.98,ENE,76,3.0,-999.0,83,-99.99,,,-99.99,262.000000,,2013-07-22 11:52:00,
2013-07-22 08:02:00,65.0,59.0,29.98,NE,55,3.0,-999.0,81,-99.99,,,-99.99,322.000000,,2013-07-22 12:02:00,
2013-07-22 08:12:00,65.0,59.0,29.98,NE,55,3.0,-999.0,81,-99.99,,,-99.99,322.000000,,2013-07-22 12:12:00,
2013-07-22 08:22:00,65.0,59.0,29.98,SSE,151,3.0,-999.0,80,-99.99,,,-99.99,163.000000,,2013-07-22 12:22:00,
2013-07-22 08:33:00,66.0,60.0,29.97,ENE,61,4.0,-999.0,81,-99.99,,,-99.99,392.000000,,2013-07-22 12:33:00,
2013-07-22 08:43:00,66.0,60.0,29.97,ENE,61,4.0,-999.0,81,-99.99,,,-99.99,392.000000,,2013-07-22 12:43:00,
2013-07-22 08:53:00,67.0,61.0,29.97,NNE,26,3.0,-999.0,80,-99.99,,,-99.99,436.000000,,2013-07-22 12:53:00,
2013-07-22 09:01:00,69.0,61.0,29.97,ESE,118,3.0,-999.0,77,-99.99,,,-99.99,455.000000,,2013-07-22 13:01:00,
2013-07-22 09:11:00,69.0,61.0,29.97,ESE,118,3.0,-999.0,77,-99.99,,,-99.99,455.000000,,2013-07-22 13:11:00,
2013-07-22 09:32:00,69.0,61.0,29.97,East,82,5.0,-999.0,77,-99.99,,,-99.99,322.000000,,2013-07-22 13:32:00,
2013-07-22 09:43:00,69.0,61.0,29.96,East,94,3.0,-999.0,77,-99.99,,,-99.99,533.000000,,2013-07-22 13:43:00,
2013-07-22 09:53:00,71.0,63.0,29.96,East,84,4.0,-999.0,75,-99.99,,,-99.99,554.000000,,2013-07-22 13:53:00,
2013-07-22 10:02:00,71.0,63.0,29.96,East,84,4.0,-999.0,75,-99.99,,,-99.99,554.000000,,2013-07-22 14:02:00,
2013-07-22 10:11:00,73.0,63.0,29.96,ENE,74,3.0,-999.0,72,-99.99,,,-99.99,638.000000,,2013-07-22 14:11:00,
2013-07-22 10:22:00,74.0,64.0,29.96,ENE,64,3.0,-999.0,70,-99.99,,,-99.99,603.000000,,2013-07-22 14:22:00,
2013-07-22 10:32:00,74.0,64.0,29.96,ENE,64,3.0,-999.0,70,-99.99,,,-99.99,603.000000,,2013-07-22 14:32:00,
2013-07-22 10:43:00,76.0,65.0,29.96,East,90,3.0,-999.0,68,-99.99,,,-99.99,613.000000,,2013-07-22 14:43:00,
2013-07-22 10:53:00,77.0,65.0,29.96,ESE,119,3.0,-999.0,66,-99.99,,,-99.99,635.000000,,2013-07-22 14:53:00,
2013-07-22 11:02:00,77.0,65.0,29.96,ESE,119,3.0,-999.0,66,-99.99,,,-99.99,635.000000,,2013-07-22 15:02:00,
2013-07-22 11:11:00,78.0,62.0,29.95,SSE,160,4.0,-999.0,59,-99.99,,,-99.99,775.000000,,2013-07-22 15:11:00,
2013-07-22 11:22:00,79.0,63.0,29.95,ESE,105,3.0,-999.0,58,-99.99,,,-99.99,814.000000,,2013-07-22 15:22:00,
2013-07-22 11:33:00,79.0,63.0,29.95,ESE,105,3.0,-999.0,58,-99.99,,,-99.99,814.000000,,2013-07-22 15:33:00,
2013-07-22 11:43:00,80.0,63.0,29.95,SSE,165,2.0,-999.0,56,-99.99,,,-99.99,874.000000,,2013-07-22 15:43:00,
2013-07-22 11:52:00,80.0,62.0,29.94,SSW,192,3.0,-999.0,55,-99.99,,,-99.99,925.000000,,2013-07-22 15:52:00,
2013-07-22 12:11:00,80.0,61.0,29.94,SE,146,5.0,-999.0,52,-99.99,,,-99.99,671.000000,,2013-07-22 16:11:00,
2013-07-22 12:32:00,80.0,60.0,29.94,South,186,6.0,-999.0,51,-99.99,,,-99.99,,,2013-07-22 16:32:00,
2013-07-22 12:43:00,81.0,61.0,29.93,SSW,206,6.0,-999.0,51,-99.99,,,-99.99,712.000000,,2013-07-22 16:43:00,
2013-07-22 12:52:00,80.0,60.0,29.93,WSW,247,5.0,-999.0,51,-99.99,,,-99.99,860.000000,,2013-07-22 16:52:00,
2013-07-22 13:01:00,81.0,61.0,29.93,South,185,3.0,-999.0,50,-99.99,,,-99.99,951.000000,,2013-07-22 17:01:00,
2013-07-22 13:11:00,81.0,61.0,29.93,South,185,3.0,-999.0,50,-99.99,,,-99.99,951.000000,,2013-07-22 17:11:00,
2013-07-22 13:23:00,81.0,60.0,29.92,ESE,120,3.0,-999.0,49,-99.99,,,-99.99,803.000000,,2013-07-22 17:23:00,
2013-07-22 13:32:00,82.0,61.0,29.92,SSW,193,3.0,-999.0,49,-99.99,,,-99.99,700.000000,,2013-07-22 17:32:00,
2013-07-22 13:43:00,82.0,61.0,29.92,SSW,193,3.0,-999.0,49,-99.99,,,-99.99,700.000000,,2013-07-22 17:43:00,
2013-07-22 13:52:00,82.0,60.0,29.91,SSW,206,3.0,-999.0,48,-99.99,,,-99.99,650.000000,,2013-07-22 17:52:00,
2013-07-22 14:17:00,83.0,61.0,29.90,SE,140,4.0,-999.0,48,-99.99,,,-99.99,610.000000,,2013-07-22 18:17:00,
2013-07-22 14:38:00,83.0,61.0,29.91,South,180,5.0,-999.0,47,-99.99,,,-99.99,,,2013-07-22 18:38:00,
2013-07-22 14:52:00,84.0,62.0,29.90,SSE,162,4.0,-999.0,47,-99.99,,,-99.99,,,2013-07-22 18:52:00,
2013-07-22 14:59:00,83.0,61.0,29.89,SE,130,2.0,-999.0,48,-99.99,,,-99.99,489.000000,,2013-07-22 18:59:00,
2013-07-22 15:17:00,83.0,61.0,29.89,SSE,151,3.0,-999.0,48,-99.99,,,-99.99,371.000000,,2013-07-22 19:17:00,
2013-07-22 15:26:00,83.0,61.0,29.88,SSE,153,4.0,-999.0,48,-99.99,,,-99.99,529.000000,,2013-07-22 19:26:00,
2013-07-22 15:37:00,81.0,61.0,29.88,SE,144,5.0,-999.0,51,-99.99,,,-99.99,462.000000,,2013-07-22 19:37:00,
2013-07-22 15:46:00,81.0,61.0,29.88,SE,144,5.0,-999.0,51,-99.99,,,-99.99,462.000000,,2013-07-22 19:46:00,
2013-07-22 15:55:00,82.0,62.0,29.87,SSE,155,5.0,-999.0,51,-99.99,,,-99.99,831.000000,,2013-07-22 19:55:00,
2013-07-22 16:05:00,83.0,62.0,29.87,SE,124,4.0,-999.0,50,-99.99,,,-99.99,355.000000,,2013-07-22 20:05:00,
2013-07-22 16:16:00,83.0,62.0,29.87,SE,124,4.0,-999.0,50,-99.99,,,-99.99,355.000000,,2013-07-22 20:16:00,
2013-07-22 16:22:00,81.0,62.0,29.87,South,173,7.0,-999.0,53,-99.99,,,-99.99,568.000000,,2013-07-22 20:22:00,
2013-07-22 16:43:00,81.0,62.0,29.85,SE,128,5.0,-999.0,52,-99.99,,,-99.99,206.000000,,2013-07-22 20:43:00,
2013-07-22 16:52:00,81.0,62.0,29.85,SSE,155,4.0,-999.0,53,-99.99,,,-99.99,243.000000,,2013-07-22 20:52:00,
2013-07-22 17:01:00,81.0,62.0,29.85,SSE,155,4.0,-999.0,53,-99.99,,,-99.99,243.000000,,2013-07-22 21:01:00,
2013-07-22 17:12:00,81.0,63.0,29.85,ESE,119,5.0,-999.0,54,-99.99,,,-99.99,353.000000,,2013-07-22 21:12:00,
2013-07-22 17:22:00,81.0,63.0,29.85,SSE,151,4.0,-999.0,54,-99.99,,,-99.99,487.000000,,2013-07-22 21:22:00,
2013-07-22 17:32:00,81.0,62.0,29.84,ESE,120,5.0,-999.0,53,-99.99,,,-99.99,534.000000,,2013-07-22 21:32:00,
2013-07-22 17:43:00,81.0,62.0,29.84,ESE,120,5.0,-999.0,53,-99.99,,,-99.99,534.000000,,2013-07-22 21:43:00,
2013-07-22 17:53:00,81.0,63.0,29.84,SSE,166,4.0,-999.0,54,-99.99,,,-99.99,183.000000,,2013-07-22 21:53:00,
2013-07-22 18:11:00,80.0,64.0,29.83,ENE,71,3.0,-999.0,58,-99.99,,,-99.99,132.000000,,2013-07-22 22:11:00,
2013-07-22 18:22:00,78.0,64.0,29.84,SE,126,2.0,-999.0,62,-99.99,,,-99.99,95.000000,,2013-07-22 22:22:00,
2013-07-22 18:32:00,78.0,64.0,29.83,SSE,158,4.0,-999.0,63,-99.99,,,-99.99,97.000000,,2013-07-22 22:32:00,
2013-07-22 18:43:00,78.0,64.0,29.83,SSE,158,4.0,-999.0,63,-99.99,,,-99.99,97.000000,,2013-07-22 22:43:00,
2013-07-22 18:52:00,77.0,64.0,29.83,SE,128,3.0,-999.0,65,-99.99,,,-99.99,54.000000,,2013-07-22 22:52:00,
2013-07-22 19:01:00,77.0,65.0,29.83,East,100,4.0,-999.0,67,-99.99,,,-99.99,37.000000,,2013-07-22 23:01:00,
2013-07-22 19:11:00,77.0,65.0,29.83,East,100,4.0,-999.0,67,-99.99,,,-99.99,37.000000,,2013-07-22 23:11:00,
2013-07-22 19:22:00,76.0,65.0,29.83,SSE,156,4.0,-999.0,69,-99.99,,,-99.99,19.000000,,2013-07-22 23:22:00,
2013-07-22 19:32:00,75.0,65.0,29.83,SE,124,6.0,-999.0,70,-99.99,,,-99.99,11.000000,,2013-07-22 23:32:00,
2013-07-22 19:43:00,75.0,65.0,29.83,SE,124,6.0,-999.0,70,-99.99,,,-99.99,11.000000,,2013-07-22 23:43:00,
2013-07-22 19:52:00,75.0,65.0,29.82,SE,138,3.0,-999.0,71,-99.99,,,-99.99,9.000000,,2013-07-22 23:52:00,
2013-07-22 20:01:00,74.0,64.0,29.83,SSE,167,5.0,-999.0,72,-99.99,,,-99.99,0.000000,,2013-07-23 00:01:00,
2013-07-22 20:12:00,74.0,64.0,29.83,SSE,167,5.0,-999.0,72,-99.99,,,-99.99,0.000000,,2013-07-23 00:12:00,
2013-07-22 20:22:00,74.0,64.0,29.83,SSW,192,3.0,-999.0,72,-99.99,,,-99.99,0.000000,,2013-07-23 00:22:00,
2013-07-22 20:32:00,74.0,66.0,29.83,South,173,4.0,-999.0,75,-99.99,,,-99.99,0.000000,,2013-07-23 00:32:00,
2013-07-22 20:43:00,74.0,66.0,29.83,South,173,4.0,-999.0,75,-99.99,,,-99.99,0.000000,,2013-07-23 00:43:00,
2013-07-22 20:52:00,72.0,65.0,29.84,SSE,152,5.0,-999.0,80,-99.99,,,-99.99,0.000000,,2013-07-23 00:52:00,
2013-07-22 21:01:00,72.0,65.0,29.84,SSE,152,5.0,-999.0,80,-99.99,,,-99.99,0.000000,,2013-07-23 01:01:00,
2013-07-22 21:11:00,71.0,66.0,29.85,SW,236,2.0,-999.0,83,-99.99,,,-99.99,0.000000,,2013-07-23 01:11:00,
2013-07-22 21:22:00,71.0,66.0,29.85,SSW,200,1.0,-999.0,85,-99.99,,,-99.99,0.000000,,2013-07-23 01:22:00,
2013-07-22 21:32:00,71.0,66.0,29.85,SSW,200,1.0,-999.0,85,-99.99,,,-99.99,0.000000,,2013-07-23 01:32:00,
2013-07-22 21:43:00,70.0,66.0,29.85,SSW,200,1.0,-999.0,87,-99.99,,,-99.99,0.000000,,2013-07-23 01:43:00,
2013-07-22 21:53:00,69.0,65.0,29.85,SSW,200,1.0,-999.0,88,-99.99,,,-99.99,0.000000,,2013-07-23 01:53:00,
2013-07-22 22:02:00,69.0,65.0,29.85,SSW,200,1.0,-999.0,88,-99.99,,,-99.99,0.000000,,2013-07-23 02:02:00,
2013-07-22 22:11:00,69.0,65.0,29.85,North,355,2.0,-999.0,88,-99.99,,,-99.99,0.000000,,2013-07-23 02:11:00,
2013-07-22 22:22:00,67.0,63.0,29.85,North,355,2.0,-999.0,88,-99.99,,,-99.99,0.000000,,2013-07-23 02:22:00,
2013-07-22 22:43:00,66.0,63.0,29.84,North,360,1.0,-999.0,89,-99.99,,,-99.99,0.000000,,2013-07-23 02:43:00,
2013-07-22 22:53:00,66.0,63.0,29.83,North,360,0.0,-999.0,90,-99.99,,,-99.99,0.000000,,2013-07-23 02:53:00,
2013-07-22 23:02:00,66.0,63.0,29.83,North,360,0.0,-999.0,90,-99.99,,,-99.99,0.000000,,2013-07-23 03:02:00,
2013-07-22 23:11:00,66.0,63.0,29.83,North,360,0.0,-999.0,90,-99.99,,,-99.99,0.000000,,2013-07-23 03:11:00,
2013-07-22 23:22:00,66.0,63.0,29.83,North,360,0.0,-999.0,91,-99.99,,,-99.99,0.000000,,2013-07-23 03:22:00,
2013-07-22 23:33:00,65.0,62.0,29.83,North,360,0.0,-999.0,91,-99.99,,,-99.99,0.000000,,2013-07-23 03:33:00,
2013-07-22 23:43:00,65.0,62.0,29.83,North,360,0.0,-999.0,91,-99.99,,,-99.99,0.000000,,2013-07-23 03:43:00,
2013-07-22 23:52:00,65.0,62.0,29.82,North,360,0.0,-999.0,91,-99.99,,,-99.99,0.000000,,2013-07-23 03:52:00,